User: anonymous   Login
Location: Unspecified
(0.0000°N, 0.0000°E)
Time: 12:39:29
(UTC+02:00)
Language:

ITAMSAT 1 - Orbit

View from above orbital plane
View from above orbital plane
View from above satellite
View from above satellite

Ground track
Ground track

The orbit data is extracted from the following two-line orbital elements,

1 22826U 93061D   17206.48837099 -.00000009 +00000-0 +14246-4 0  9994
2 22826 098.8094 172.6251 0008364 203.5847 156.4953 14.30330371243056
Epoch (UTC): 25 July 2017 11:43:15
Eccentricity: 0.0008364
inclination: 98.8094°
perigee height: 784 km
apogee height: 796 km
right ascension of ascending node: 172.6251°
argument of perigee: 203.5847°
revolutions per day: 14.30330371
mean anomaly at epoch: 156.4953°
orbit number at epoch: 24305

The dashed part of the orbit path shows where the satellite is in the earth's shadow,  

DLR